Location: Unspecified
(0.0000°N, 0.0000°E)
Time: 08:41:43
(UTC+00:00)

S-56A Canister/Altair - Pass Details

Date: 20 December 2018
Orbit: 633 x 2500 km, 38.9° (Epoch: 24 March)

Event Time Altitude Azimuth Distance (km) Brightness Sun altitude
Rises 21:46:04 0° 233° (SW) 2,914 - -50.4°
Reaches altitude 10° 21:48:14 10° 235° (SW) 2,028 - -50.8°
Maximum altitude 21:52:42 72° 319° (NW) 745 - -51.6°
Drops below altitude 10° 21:58:21 10° 44° (NE) 2,533 - -52.7°
Sets 22:01:21 0° 46° (NE) 3,717 - -53.3°
